sat.trackr.live / text

‹ back to catalog

STARLINK-11091 [DTC]

NORAD 61207 · 2024-171H

PAYLOAD ACTIVE UNKNOWN

§ Identity

Operator
Country
US
Launch date
2024-09-20
Launch site
AFWTR
Launch vehicle
Mass (kg)
RCS (m²)

Purposes: comms

External: N2YO · Heavens-Above · Gunter

§ Orbital elements

Epoch: 2026-05-25T01:15:28.096128Z

Period
91.74 min
Inclination
53.1585°
Eccentricity
0.0000899
Mean motion
15.69700024 rev/d
Perigee alt
359.1 km
Apogee alt
360.4 km
Semi-major
6,737.9 km
B*
3.8440e-5
RAAN
159.7237°
Arg perigee
118.8093°
Mean anomaly
241.3015°
Rev number
9,639

§ Raw data

STARLINK-11091 [DTC]1 61207U 24171H   26145.05240852  .00004069  00000+0  38440-4 0  99962 61207  53.1585 159.7237 0000899 118.8093 241.3015 15.69700024 96392

JSON: /api/v1/satellites/61207 · /tle

For live sub-satellite position, see the globe view (requires WebGL).

§ Visibility from observer

Set your observer location to see the next 7 days of passes ≥ 10°. The values pass through the URL so the page stays shareable.

No JS? Fill the form by hand. The geolocation button needs JavaScript.